Location: Newark
(44.3681°N, 100.3364°W)
Time: 22:56:15
(UTC+00:00)

deb Explorer IX - Pass Details

Date: 25 February 2020
Orbit: 547 x 1100 km, 38.8° (Epoch: 01 April)

Event Time Altitude Azimuth Distance (km) Brightness Sun altitude
Rises 16:22:30 0° 237° (WSW) 3,035 ? 26.5°
Reaches altitude 10° 16:25:13 10° 227° (SW) 2,035 ? 26.8°
Maximum altitude 16:29:16 30° 166° (SSE) 1,078 ? 27.3°
Drops below altitude 10° 16:32:58 10° 105° (ESE) 1,857 ? 27.7°
Sets 16:35:20 0° 94° (E) 2,723 ? 28.0°
